Location: Unspecified
(0.0000°N, 0.0000°E)
Time: 16:22:02
(UTC+00:00)

Vanguard 2 Rocket - Visible Passes

Search period start: 19 October 2020 00:00
Search period end: 29 October 2020 00:00
Orbit: 554 x 3326 km, 32.9° (Epoch: 19 October)

Date Brightness Start Highest point End Pass type
(mag) Time Alt. Az. Time Alt. Az. Time Alt. Az.
19 Oct 9.8 02:24:13 40° NNE 02:27:39 42° NE 02:46:06 10° E visible
19 Oct 9.6 04:30:03 17° NW 04:46:26 87° SW 05:06:09 10° SE visible
20 Oct 10.2 01:28:21 29° NE 01:28:21 29° NE 01:41:13 10° E visible
20 Oct 9.5 03:34:11 36° NW 03:43:56 75° NE 04:04:19 10° ESE visible
21 Oct 10.8 00:32:28 13° ENE 00:32:28 13° ENE 00:34:48 10° ENE visible
21 Oct 9.4 02:38:18 52° N 02:41:43 57° NE 03:01:31 10° ESE visible
21 Oct 9.7 04:44:08 16° WNW 05:00:29 68° SW 05:20:01 10° SE visible
22 Oct 9.9 01:42:23 40° NE 01:42:23 40° NE 01:57:37 10° ESE visible
22 Oct 9.4 03:48:12 37° WNW 03:57:54 85° SW 04:18:31 10° SE visible
23 Oct 10.5 00:46:25 20° ENE 00:46:25 20° ENE 00:52:27 10° E visible
23 Oct 9.1 02:52:15 65° NNW 02:55:38 76° NE 03:16:13 10° ESE visible
23 Oct 9.9 04:58:04 13° WNW 05:14:47 52° SSW 05:33:36 10° SE visible
24 Oct 9.5 01:56:14 54° ENE 01:56:14 54° ENE 02:13:02 10° ESE visible
24 Oct 9.5 04:02:03 33° WNW 04:12:02 66° SW 04:32:18 10° SE visible
25 Oct 10.3 01:00:10 28° E 01:00:10 28° E 01:08:52 10° ESE visible
25 Oct 9.0 03:05:59 66° WNW 03:09:37 83° SW 03:30:22 10° SE visible
25 Oct 10.2 05:12:43 10° W 05:29:28 39° SSW 05:47:06 10° SE visible
26 Oct 9.2 02:09:52 71° E 02:09:52 71° E 02:27:41 10° ESE visible
26 Oct 9.7 04:15:40 26° W 04:26:30 50° SSW 04:45:52 10° SE visible
27 Oct 10.0 01:13:41 37° E 01:13:41 37° E 01:24:15 10° ESE visible
27 Oct 9.2 03:19:29 53° W 03:23:51 63° SSW 03:44:05 10° SE visible
28 Oct 10.7 00:17:27 15° E 00:17:27 15° E 00:20:01 10° ESE visible
28 Oct 9.1 02:23:15 76° SSE 02:23:15 76° SSE 02:41:45 10° SE visible
28 Oct 10.1 04:29:03 17° W 04:41:23 37° SSW 04:59:21 10° SE visible
